Regional Weather Roundup
Issued by NWS

Home | Current Version | Previous Version | Graphics & Text | Print | Product List | Glossary Off
Versions: 1 2 3 4 5 6 7 8 9 10 11 12 13 14 15 16 17 18 19 20 21 22 23 24 25 26 27 28 29 30 31 32 33 34 35 36 37 38 39 40 41 42 43 44 45 46 47 48 49 50

000
ASUS43 KDMX 260007
RWRIA

WEATHER ROUNDUP FOR IOWA
NATIONAL WEATHER SERVICE DES MOINES IA
700 PM CDT MON MAY 25 2015

NOTE: "FAIR" INDICATES FEW OR NO CLOUDS BELOW 12,000 FEET WITH NO
SIGNIFICANT WEATHER AND/OR OBSTRUCTIONS TO VISIBILITY.

* - THESE STATIONS ARE NOT NWS STATIONS...THUS NOT UNDER NWS
QUALITY CONTROL.  THEY ALSO DO NOT REPORT WEATHER SUCH
AS PRECIPITATION OR FOG.

IAZ001>003-012>014-020>022-031>034-043>046-260100-
   NORTHWEST IOWA

CITY           SKY/WX    TMP DP  RH WIND       PRES   REMARKS
CARROLL *      RAIN      72  66  83 S6G14     29.75S
CHEROKEE *     PTSUNNY   76  56  50 S9        29.75R
DENISON *      SUNNY     77  61  57 SW9G17    29.74S
LE MARS *      PTSUNNY   77  55  47 SW12G18   29.75R
ORANGE CITY *  MOSUNNY   73  54  49 SW10      29.74R
SHELDON *      CLOUDY    68 -38   1 N13       29.74R
SIOUX CITY     MOSUNNY   78  56  46 SW13      29.73S
6HR MIN TEMP:  73; 6HR MAX TEMP:  80;

SPENCER        PTSUNNY   75  56  51 SW12      29.75S
6HR MIN TEMP:  70; 6HR MAX TEMP:  79;

STORM LAKE *   SUNNY     77  55  47 SW13      29.77R
$$

IAZ055>058-069>071-079>083-090>094-260100-
   SOUTHWEST IOWA

CITY           SKY/WX    TMP DP  RH WIND       PRES   REMARKS
ATLANTIC *     MOSUNNY   75  64  69 S15G22    29.78R
AUDUBON *      SUNNY     75  64  69 S13       29.78S
CLARINDA *     LGT RAIN  72  68  88 CALM      29.83R
COUNCIL BLFS * SUNNY     75  64  69 S13       29.76S
CRESTON *      MOSUNNY   72  66  83 S6        29.82R
HARLAN  *      SUNNY     77  63  61 S18       29.79R
LAMONI         PTSUNNY   77  66  68 S8        29.82R
6HR MIN TEMP:  77; 6HR MAX TEMP:  81;

RED OAK *        N/A     72  68  88 S6        29.79S
SHENANDOAH *   CLOUDY    73  66  78 S18       29.80R
$$

IAZ047>049-059>061-072>074-084-260100-
   CENTRAL IOWA

CITY           SKY/WX    TMP DP  RH WIND       PRES   REMARKS
AMES           MOSUNNY   75  64  68 S13       29.78S
6HR MIN TEMP:  68; 6HR MAX TEMP:  79; 6HR PCP:  0.21;

ANKENY *       SUNNY     77  64  65 SW15G24   29.79R
CHARITON *     SUNNY     75  66  73 S14       29.83R
DES MOINES     CLOUDY    77  63  61 S15       29.79R
6HR MIN TEMP:  76; 6HR MAX TEMP:  81;

GRINNELL*      MOSUNNY   75  63  64 S13       29.82R
KNOXVILLE *    SUNNY     75  64  69 S8        29.81R
MARSHALLTOWN   PTSUNNY   76  64  66 S14       29.79S
6HR MIN TEMP:  74; 6HR MAX TEMP:  79;

PELLA *        MOSUNNY   75  67  76 S7        29.83R
PERRY *          N/A     78  62  58 S18       29.76S
$$

IAZ004>006-015-016-023>025-035-036-260100-
   NORTH CENTRAL IOWA

CITY           SKY/WX    TMP DP  RH WIND       PRES   REMARKS
ALGONA *       SUNNY     77 -31   1 SW16      29.77R
CLARION *      PTSUNNY   77  57  50 SW16      29.77R
ESTHERVILLE    MOSUNNY   73  54  51 SW12      29.74S
6HR MIN TEMP:  69; 6HR MAX TEMP:  77;

FORT DODGE *   MOSUNNY   75  57  53 SW9       29.78R
MASON CITY     SUNNY     76  58  53 SW12      29.78S
6HR MIN TEMP:  70; 6HR MAX TEMP:  78; 6HR PCP:  0.02;

FOREST CITY *  SUNNY     73  55  53 SW16      29.77R
IOWA FALLS *     N/A     73  59  60 S13       29.80R
$$

IAZ007>011-017>019-026>030-037>042-050>054-066-260100-
   NORTHEAST IOWA

CITY           SKY/WX    TMP DP  RH WIND       PRES   REMARKS
CEDAR RAPIDS   MOSUNNY   76  64  66 S15G24    29.82F
6HR MIN TEMP:  74; 6HR MAX TEMP:  79;

CHARLES CITY * SUNNY     75  61  60 SW9G20    29.78F
CLINTON *      SUNNY     77  59  53 SW15      29.88F
DECORAH *      PTSUNNY   75  61  60 SW9G16    29.78F
DUBUQUE        MOSUNNY   74  61  63 S16       29.84F
6HR MIN TEMP:  72; 6HR MAX TEMP:  77;

MONTICELLO *   MOSUNNY   77  63  61 S13G23    29.83F
OELWEIN *      MOSUNNY   75  63  64 SW16      29.81S
WATERLOO       MOSUNNY   75  62  64 S9        29.79S
6HR MIN TEMP:  74; 6HR MAX TEMP:  79;

$$

IAZ064-065-067-068-078-260100-
   EAST CENTRAL IOWA

CITY           SKY/WX    TMP DP  RH WIND       PRES   REMARKS
DAVENPORT      SUNNY     76  60  57 S16G24    29.87F
6HR MIN TEMP:  75; 6HR MAX TEMP:  79;

IOWA CITY      MOSUNNY   77  63  61 S14       29.85F
6HR MIN TEMP:  74; 6HR MAX TEMP:  80;

MT. PLEASANT * MOSUNNY   77  64  64 S12       29.86S
MUSCATINE *    SUNNY     77  63  61 S15G21    29.86S
QUAD CITIES    MOSUNNY   77  60  55 S13G22    29.86F
6HR MIN TEMP:  76; 6HR MAX TEMP:  80;

$$

IAZ062-063-075>077-085>089-095>099-260100-
   SOUTHEAST IOWA

CITY           SKY/WX    TMP DP  RH WIND       PRES   REMARKS
BURLINGTON     SUNNY     77  64  64 S12       29.86F
6HR MIN TEMP:  74; 6HR MAX TEMP:  79;

FAIRFIELD *    MOSUNNY   77  64  65 S15G21    29.84F
FORT MADISON * SUNNY     75  64  69 S9        29.88S
KEOKUK *       SUNNY     77  64  65 S8        29.87S
OSKALOOSA *      N/A     75  63  65 S15       29.83S
CENTERVILLE *  SUNNY     75  75 100 S14       29.87R
OTTUMWA        MOSUNNY   76  65  68 S15       29.83F
6HR MIN TEMP:  76; 6HR MAX TEMP:  80;

WASHINGTON *   SUNNY     77  64  65 S15       29.86S
$$

ABBREVIATIONS USED IN REMARKS
   TC - TEMPERATURES IN CELSIUS
  WCI - WIND CHILL INDEX
   HX - HEAT INDEX
  VSB - VISIBILITY
$$



USA.gov is the U.S. government's official web portal to all federal, state and local government web resources and services.